This is the latest recevied weather packets stored in our database for station/object Waldburg. If no packets are shown the sender has not sent any weather packets the latest 10 day(s).
| Time | Temp. | Humidity | Pressure | Rain* | Wind** | Luminosity | Snow |
|---|---|---|---|---|---|---|---|
| 1787950930 | 15° C | 95% | 1015.3 hPa | 10.16 mm | - | - | - |
| 1787949131 | 15° C | 94% | 1014 hPa | 10.16 mm | - | - | - |
| 1787947331 | 15.56° C | 93% | 1014.6 hPa | 8.89 mm | - | - | - |
| 1787945534 | 16.11° C | 90% | 1014.8 hPa | 7.87 mm | - | - | - |
| 1787943732 | 16.11° C | 90% | 1014.2 hPa | 7.62 mm | - | - | - |
| 1787941931 | 16.67° C | 90% | 1013.2 hPa | 7.11 mm | - | - | - |
| 1787940131 | 17.22° C | 91% | 1012.9 hPa | 7.11 mm | - | - | - |
| 1787938334 | 17.78° C | 90% | 1012.6 hPa | 6.86 mm | - | - | - |
| 1787936532 | 17.78° C | 85% | 1012.6 hPa | 6.6 mm | - | - | - |
| 1787934731 | 17.78° C | 85% | 1012.5 hPa | 6.6 mm | - | - | - |
| 1787932931 | 18.33° C | 82% | 1011.8 hPa | 6.6 mm | - | - | - |
| 1787931130 | 18.89° C | 82% | 1011.5 hPa | 6.6 mm | - | - | - |
| 1787929330 | 19.44° C | 84% | 1011.5 hPa | 6.6 mm | - | - | - |
| 1787927530 | 18.33° C | 86% | 1012.2 hPa | 6.6 mm | - | - | - |
| 1787925730 | 18.33° C | 90% | 1012 hPa | 6.35 mm | - | - | - |
| 1787923930 | 18.33° C | 89% | 1011.7 hPa | 6.1 mm | - | - | - |
| 1787922130 | 18.89° C | 91% | 1012.1 hPa | 6.1 mm | - | - | - |
| 1787920330 | 18.33° C | 92% | 1011.8 hPa | 6.1 mm | - | - | - |
| 1787918530 | 17.78° C | 92% | 1012.3 hPa | 6.1 mm | - | - | - |
| 1787916730 | 18.33° C | 89% | 1012.1 hPa | 5.08 mm | - | - | - |
| 1787914930 | 20.56° C | 82% | 1011.7 hPa | 4.83 mm | - | - | - |
| 1787913130 | 21.11° C | 84% | 1010.3 hPa | 4.83 mm | - | - | - |
| 1787911331 | 21.67° C | 85% | 1010.3 hPa | 4.83 mm | - | - | - |
| 1787909530 | 21.11° C | 86% | 1009.4 hPa | 4.83 mm | - | - | - |
| 1787907730 | 22.78° C | 77% | 1009.5 hPa | 4.57 mm | - | - | - |
* Rain since midnight (hover to see other rain measurements)
** Current wind speed in m/s (hover to see current wind gust speed)